Location: Staunton
(38.1490°N, 79.0720°W)
Time: 23:17:37
(UTC-04:00)

ISS - Pass Details

Date: 23 September 2018
Orbit: 403 x 409 km, 51.6° (Epoch: 24 September)

Event Time Altitude Azimuth Distance (km) Brightness Sun altitude
Rises 21:18:17 0° 267° (W) 2,326 1.1 -25.2°
Reaches altitude 10° 21:20:47 10° 286° (WNW) 1,467 0.0 -25.7°
Enters shadow 21:23:12 19° 334° (NNW) 1,042 -1.3 -26.1°
